This is the latest recevied weather packets stored in our database for station/object KG4YZY-1. If no packets are shown the sender has not sent any weather packets the latest 10 day(s).
| Time | Temp. | Humidity | Pressure | Rain* | Wind** | Luminosity | Snow |
|---|---|---|---|---|---|---|---|
| 1787605804 | 28.89° C | 88% | 1017 hPa | 0.25 mm | - | - | - |
| 1787605504 | 28.89° C | 89% | 1016.9 hPa | 0.25 mm | - | - | - |
| 1787605204 | 28.89° C | 90% | 1017 hPa | 0.25 mm | - | - | - |
| 1787604903 | 28.33° C | 90% | 1017 hPa | 0.25 mm | - | - | - |
| 1787604603 | 28.33° C | 91% | 1017 hPa | 0.25 mm | - | - | - |
| 1787604304 | 28.33° C | 91% | 1017 hPa | 0.25 mm | - | - | - |
| 1787604004 | 28.33° C | 92% | 1017.1 hPa | 0.25 mm | - | - | - |
| 1787603703 | 27.78° C | 92% | 1017.2 hPa | 0.25 mm | - | - | - |
| 1787603405 | 27.78° C | 92% | 1017.2 hPa | 0.25 mm | - | - | - |
| 1787603103 | 27.78° C | 92% | 1017.2 hPa | 0.25 mm | - | - | - |
| 1787602804 | 27.22° C | 92% | 1017.2 hPa | 0.25 mm | - | - | - |
| 1787602503 | 27.22° C | 92% | 1017.2 hPa | 0.51 mm | - | - | - |
| 1787602204 | 26.67° C | 91% | 1017.3 hPa | 0.76 mm | - | - | - |
| 1787601903 | 26.67° C | 91% | 1017.4 hPa | 1.27 mm | - | - | - |
| 1787601604 | 26.67° C | 91% | 1017.3 hPa | 1.27 mm | - | - | - |
| 1787601303 | 26.11° C | 91% | 1017.1 hPa | 1.52 mm | - | - | - |
| 1787601004 | 26.11° C | 91% | 1017 hPa | 2.54 mm | - | - | - |
| 1787600703 | 25.56° C | 90% | 1017 hPa | 2.54 mm | - | - | - |
| 1787600404 | 25.56° C | 89% | 1017 hPa | 2.54 mm | - | - | - |
| 1787600103 | 25.56° C | 88% | 1017.1 hPa | 2.54 mm | - | - | - |
| 1787599804 | 25.56° C | 88% | 1017.2 hPa | 2.54 mm | - | - | - |
| 1787599503 | 25.56° C | 88% | 1017.5 hPa | 2.54 mm | - | - | - |
| 1787599204 | 25.56° C | 87% | 1017.6 hPa | 2.54 mm | - | - | - |
| 1787598903 | 26.11° C | 86% | 1017.7 hPa | 2.29 mm | - | - | - |
| 1787598604 | 26.11° C | 85% | 1017.9 hPa | 1.78 mm | - | - | - |
* Rain latest hour (hover to see other rain measurements)
** Current wind speed in m/s (hover to see current wind gust speed)